Theta_e
303 304 305 305 305 305 301 301 295 298 299 304 308 315 317 319 320 321 325 325 325 332 333 335 336 340 344 347 348 356 358 358 357 359 361 360 360 359 355 355 354 351 347 346
301 304 304 302 305 306 305 304 303 302 301 306 310 319 320 320 321 320 321 329 328 329 334 335 335 338 341 344 347 350 354 355 357 357 359 359 359 358 358 354 356 351 346 345
296 302 302 297 302 304 306 307 305 300 304 308 308 313 317 321 319 319 319 328 329 329 335 336 337 338 339 342 345 347 349 354 355 356 357 358 358 357 356 355 356 354 348 345
295 299 293 302 308 309 307 309 308 306 307 309 310 312 314 315 316 316 321 324 326 334 334 338 341 340 341 342 344 345 347 350 354 355 356 358 358 356 356 357 356 354 349 347
294 295 299 305 307 307 304 304 311 307 308 310 312 311 308 317 316 315 318 317 323 328 335 339 342 345 342 342 345 345 347 348 352 355 356 358 357 357 356 356 353 352 350 348
296 293 292 301 310 313 316 302 319 319 318 318 316 307 312 323 325 324 322 319 322 326 326 338 337 349 345 343 345 345 346 351 353 355 356 358 358 357 356 355 354 350 346 345
297 294 298 308 314 314 303 305 321 322 321 320 315 319 323 325 323 324 326 322 320 324 324 327 339 350 348 346 344 350 352 354 357 358 359 360 358 358 356 352 349 348 345 342
298 294 293 318 316 309 316 320 322 322 321 321 320 321 321 323 324 323 327 335 329 324 331 338 341 349 348 349 351 351 357 358 361 361 361 360 358 354 350 347 347 343 341 338
302 304 316 319 319 322 325 322 322 320 327 321 322 324 333 331 332 332 334 343 350 350 352 355 352 350 349 354 358 358 358 358 359 358 358 355 350 347 345 341 341 338 337 336
307 313 314 316 321 323 329 328 329 331 332 330 328 331 331 332 337 340 342 342 345 348 349 351 355 357 357 357 357 357 356 353 349 348 346 345 345 344 340 338 337 336 335 334
307 313 317 321 320 322 327 329 326 325 325 324 325 325 329 331 334 339 341 344 348 350 350 351 354 355 356 356 356 352 347 344 343 339 330 321 311 319 333 318 329 337 336 335
306 310 311 309 314 323 324 325 324 322 322 324 323 322 324 325 332 336 339 341 340 342 345 346 349 348 348 349 348 344 340 341 336 332 327 323 319 313 302 301 300 302 310 324
312 314 312 312 313 315 315 313 316 317 319 319 320 323 323 322 325 330 336 338 340 340 341 342 343 347 345 343 343 341 338 338 335 330 328 326 324 319 313 309 301 298 299 304
316 316 310 312 310 314 314 316 316 317 318 318 317 318 320 321 323 327 332 335 338 338 338 339 341 342 344 344 343 340 338 325 337 334 331 329 326 322 318 318 315 312 300 301
317 317 314 315 314 314 315 313 313 315 317 316 318 318 319 318 323 329 333 335 336 337 335 337 337 339 339 340 341 338 337 337 337 336 336 332 332 326 320 320 315 310 304 301
316 312 313 313 313 315 315 314 313 312 313 317 316 316 315 320 323 329 332 333 332 332 334 334 334 334 336 339 334 330 327 327 330 330 330 332 331 328 325 322 315 311 310 308
308 308 310 310 310 311 313 315 315 316 316 316 319 320 318 321 321 321 322 330 331 330 331 332 331 334 335 334 331 329 327 324 325 328 324 325 322 322 325 322 317 315 315 310
311 312 313 312 311 312 313 316 317 317 317 318 316 320 321 320 321 322 321 319 320 324 328 329 328 331 330 328 328 326 326 324 325 324 324 324 323 323 325 324 320 318 317 310
311 310 311 314 316 314 313 313 316 317 319 320 318 319 321 322 323 325 321 324 319 314 316 322 325 329 329 327 326 323 325 324 323 323 323 321 320 319 320 322 322 321 317 311
314 316 317 317 318 317 316 317 317 317 319 319 319 319 319 321 322 323 323 322 322 324 328 326 324 327 328 327 326 323 323 324 322 322 322 322 321 319 320 316 319 319 315 312
314 315 315 315 316 317 317 317 316 315 317 318 317 318 318 320 320 319 319 317 319 322 321 319 316 321 317 318 321 324 323 321 321 319 319 319 319 320 318 316 317 317 315 315
312 313 314 314 314 314 316 316 317 316 316 316 315 317 318 318 319 318 317 314 312 312 312 311 312 315 312 319 317 321 320 321 320 319 319 320 319 317 315 315 316 318 317 318
314 315 313 312 313 312 313 314 313 315 314 315 314 317 316 316 316 313 311 315 315 311 310 311 314 312 312 311 314 314 314 313 315 319 317 316 315 314 315 315 315 315 316 316
313 310 310 312 316 314 311 312 312 315 314 315 315 316 316 315 315 317 313 310 313 313 313 311 311 311 311 312 310 311 310 309 309 308 309 310 313 309 308 314 315 315 315 313
313 311 310 311 309 308 312 312 310 312 313 311 312 311 315 317 313 316 314 312 309 310 315 310 311 312 311 313 312 312 312 311 311 310 309 307 306 305 305 305 305 306 308 311
309 310 309 307 305 306 306 308 307 308 310 309 309 311 311 312 312 312 311 311 311 311 314 314 315 315 313 311 312 312 312 311 312 313 312 312 309 309 308 306 304 304 305 306
307 304 305 304 304 304 304 304 303 304 307 307 306 307 309 312 310 308 308 308 308 308 309 309 311 309 310 308 310 313 312 312 307 313 312 312 313 312 314 313 311 309 307 305
Wind_Speed
27 17 14 24 14 26 23 21 14 13 15 14 13 10 11 14 11 17 7 7 10 21 20 19 20 20 22 22 22 22 22 21 21 19 18 16 16 16 17 11 13 12 11 11
18 29 27 26 17 21 28 23 19 13 16 5 8 7 10 9 21 7 5 9 9 13 23 23 22 20 21 21 22 22 22 23 20 18 17 17 16 15 14 15 11 11 12 10
13 9 14 23 30 21 11 17 18 19 14 7 9 4 5 4 7 14 8 9 9 11 16 19 20 21 21 22 20 22 21 20 20 19 18 18 15 14 14 15 10 12 10 10
6 7 11 10 12 17 14 8 15 10 11 11 10 9 9 8 3 3 4 6 8 10 8 11 19 20 20 18 21 21 21 20 19 19 19 17 16 15 13 12 14 11 10 10
5 10 1 8 7 5 7 12 5 7 9 8 9 7 5 2 8 12 11 10 8 6 6 9 13 18 18 19 19 21 20 21 20 20 18 17 18 15 13 11 7 10 9 11
3 7 16 3 6 6 3 3 5 12 9 9 6 4 4 2 4 3 8 8 12 8 7 8 9 16 18 19 18 19 20 20 18 18 18 17 17 15 11 10 11 10 9 10
4 4 5 2 5 4 9 8 6 9 9 8 5 5 4 8 7 1 3 6 8 10 9 11 10 16 18 19 21 19 15 12 14 16 16 16 15 12 12 10 9 8 9 6
3 3 3 8 3 8 6 3 8 6 6 7 5 4 4 6 8 7 3 8 5 7 8 10 13 16 17 18 14 11 11 13 12 14 12 12 15 10 11 10 10 8 8 7
11 3 2 7 6 13 6 8 6 5 7 5 8 8 12 9 9 6 8 8 8 7 8 7 4 14 15 11 15 14 14 13 13 12 12 11 13 12 9 9 9 7 6 5
10 7 3 3 3 14 17 15 15 14 15 17 18 15 14 14 12 10 8 8 6 11 11 9 8 10 12 13 15 15 14 13 11 13 13 11 8 8 9 7 7 7 6 5
7 16 13 13 3 10 14 11 15 17 17 16 18 14 13 13 12 11 10 9 8 9 11 10 11 11 11 13 17 16 15 14 14 11 12 9 10 5 6 5 5 7 5 5
3 7 3 5 18 14 15 17 13 15 17 16 16 13 13 11 8 9 9 8 8 9 11 10 13 14 13 14 18 17 14 10 10 10 9 8 9 9 18 11 10 9 6 7
3 7 6 11 24 25 14 22 17 19 14 13 12 12 12 11 10 9 9 8 8 5 6 8 8 12 11 10 15 14 14 12 9 10 10 10 9 9 10 6 15 16 14 8
11 7 15 18 10 17 18 15 18 19 15 16 12 10 11 9 8 11 7 7 6 7 7 7 9 9 7 9 13 12 12 13 8 10 9 9 8 7 7 9 6 4 10 9
8 14 12 7 16 13 15 11 12 16 15 14 12 12 11 11 12 11 10 5 7 10 8 9 9 10 7 7 12 12 9 9 6 8 10 10 10 9 7 5 5 7 4 6
7 12 13 8 11 7 2 8 8 11 12 9 9 10 10 10 11 12 12 11 9 7 7 7 9 6 7 9 9 7 7 11 8 4 4 9 8 8 8 7 7 8 6 6
15 9 9 12 8 7 6 5 5 8 6 11 10 9 9 7 8 9 10 11 11 11 9 8 7 8 7 8 6 3 5 7 8 6 5 5 5 6 11 9 8 9 8 8
6 5 5 3 5 5 3 8 9 10 9 4 7 8 7 5 4 6 6 7 8 8 9 7 7 7 10 8 6 5 4 6 4 3 2 4 5 5 9 9 8 8 6 8
6 7 8 9 8 9 8 8 9 9 11 7 7 6 8 6 4 4 3 3 6 5 5 6 14 13 8 7 6 4 6 6 5 6 5 4 4 3 6 6 6 5 6 8
5 11 11 10 11 9 9 10 10 9 8 8 8 9 7 6 7 5 5 4 3 1 5 4 7 1 4 8 6 3 6 5 5 5 5 4 2 4 5 6 7 7 8 8
13 15 12 9 9 8 7 7 7 8 7 9 10 8 7 7 8 5 5 6 3 5 8 9 6 5 1 4 3 6 2 5 5 4 5 3 5 5 4 5 5 6 5 6
10 9 7 6 6 5 4 5 6 6 7 7 8 8 8 7 9 9 7 5 3 11 6 5 4 6 6 5 2 7 5 5 4 4 4 4 5 5 4 6 6 6 5 6
10 7 8 8 6 4 6 6 5 6 6 6 7 7 7 4 3 5 5 6 5 7 4 4 6 13 14 6 6 2 6 3 3 4 4 3 4 4 4 5 4 5 5 6
7 7 5 6 6 5 4 4 5 3 4 5 6 4 4 3 4 3 3 3 5 4 3 5 7 11 9 5 6 5 3 1 1 3 4 6 3 3 2 3 4 4 5 6
6 6 10 7 7 6 7 4 6 7 7 8 8 8 7 4 3 2 0 3 1 1 1 2 3 7 5 5 6 6 7 8 7 2 4 4 3 2 1 1 3 1 1 3
7 4 7 11 9 9 10 7 3 4 5 5 5 4 5 5 4 5 5 4 6 8 8 4 4 4 5 6 9 6 6 7 10 10 11 10 8 8 6 3 1 3 0 3
7 11 9 9 8 8 7 5 7 6 5 5 4 5 4 3 7 7 8 7 6 8 9 7 5 7 6 8 6 6 7 8 10 9 7 7 8 8 8 8 10 10 9 10
Wind_Direction
213 216 227 241 220 202 209 209 203 233 233 240 236 200 188 176 214 237 222 179 171 172 174 177 177 180 182 183 182 179 183 189 195 195 197 199 203 200 205 195 196 189 178 187
206 209 222 244 245 224 210 216 227 232 248 203 253 233 185 226 182 176 242 178 190 153 170 176 180 181 182 183 185 182 186 193 190 192 193 197 201 200 195 202 195 179 183 175
206 180 206 232 233 246 239 210 200 221 235 230 266 225 195 214 259 193 239 210 181 180 169 179 182 184 184 186 181 186 193 190 191 189 193 197 194 192 192 195 184 185 176 170
184 129 212 247 205 224 242 245 209 199 177 197 201 223 181 160 158 169 240 273 223 202 187 171 185 184 186 177 182 186 191 193 190 190 193 189 189 189 185 186 193 177 172 178
176 190 326 271 249 197 200 253 232 184 208 213 212 183 240 225 186 189 197 220 192 191 210 172 168 184 181 179 185 186 188 192 191 189 187 186 188 181 182 175 157 172 167 179
227 168 215 194 228 264 72 200 86 97 87 82 65 83 230 67 78 2 260 207 211 230 167 189 193 170 168 179 178 189 195 194 185 183 183 181 174 173 168 159 164 161 162 167
190 186 283 103 277 237 160 212 74 91 92 80 101 169 259 332 329 153 295 252 229 189 187 191 184 169 176 180 187 188 188 168 170 175 170 165 162 162 155 155 148 152 144 147
261 153 220 337 227 178 171 81 95 69 88 92 69 20 312 295 286 286 105 43 314 198 186 191 172 168 175 182 181 153 133 146 144 147 150 150 146 141 134 135 141 138 138 145
312 120 318 48 84 16 38 94 38 59 16 113 46 33 39 35 23 34 51 58 58 77 53 36 97 168 152 147 129 124 122 124 126 121 125 130 129 127 114 114 121 124 136 164
311 32 80 224 15 63 48 33 61 55 57 74 70 49 49 42 30 29 19 53 68 78 73 51 45 84 106 116 114 114 113 106 109 111 105 103 111 112 125 126 125 138 150 175
279 13 350 25 126 122 102 71 56 61 63 61 71 56 58 37 35 39 35 32 44 78 90 83 80 72 88 105 108 105 103 102 102 95 98 90 66 56 100 55 124 151 178 158
15 331 291 320 16 15 107 108 98 81 67 60 60 52 54 43 36 42 42 21 36 41 67 57 83 87 82 93 105 110 118 114 119 117 108 113 106 81 52 59 47 71 79 125
143 88 78 54 43 18 339 88 78 73 68 69 57 60 51 48 28 23 37 51 43 26 44 70 77 84 97 111 110 117 120 123 119 121 118 123 119 121 119 73 75 62 63 79
145 149 60 46 48 19 355 38 70 73 64 58 49 48 55 50 24 23 28 73 72 55 56 54 71 85 103 113 102 112 118 108 117 120 136 134 128 130 133 133 138 100 44 86
70 86 102 106 88 57 354 5 47 61 65 55 41 37 35 37 34 27 20 54 79 65 48 46 53 53 52 68 112 111 120 120 155 153 156 139 142 141 132 154 151 121 118 70
106 87 101 106 89 123 150 334 37 53 51 53 64 51 34 30 35 28 22 38 72 68 55 53 62 65 48 55 71 77 95 98 121 127 139 141 141 153 151 162 150 138 157 156
84 109 105 84 103 107 127 144 86 65 61 46 56 75 53 48 40 40 16 32 52 44 31 39 40 48 58 65 68 131 103 89 87 84 89 111 144 129 166 162 161 165 167 167
56 66 60 46 108 103 39 50 50 39 55 105 76 61 58 69 54 56 52 27 29 42 33 30 17 22 48 30 54 58 61 79 85 107 175 151 176 146 165 169 159 160 146 166
177 140 115 75 48 45 60 59 55 48 47 60 33 59 87 67 74 117 109 60 66 28 334 26 10 5 37 20 30 22 81 77 103 102 91 44 65 94 128 143 142 133 151 150
106 85 71 60 63 50 58 46 45 42 34 43 40 50 64 112 120 79 36 71 84 100 86 92 120 207 343 335 335 47 113 122 108 122 130 135 115 106 123 125 133 142 149 160
87 79 74 66 77 57 50 55 54 47 25 35 40 32 73 36 46 55 85 76 29 84 97 87 73 76 50 313 39 72 249 104 120 163 132 130 137 179 176 158 150 148 155 162
82 88 86 72 68 64 51 64 50 46 44 38 35 46 62 60 68 36 47 81 53 64 55 48 46 38 7 36 269 157 163 146 155 152 127 153 180 139 165 154 161 160 161 172
35 41 52 56 60 56 41 52 54 66 44 53 43 74 78 73 61 75 48 1 56 70 70 62 40 37 9 18 9 332 82 116 141 143 170 167 145 134 182 192 171 147 172 178
41 35 17 359 18 64 37 40 4 42 67 46 43 85 115 87 45 48 124 112 88 116 89 55 31 29 22 355 352 352 340 56 318 155 138 164 166 157 106 142 187 206 201 198
47 60 40 43 47 36 13 42 31 26 42 51 40 27 57 25 90 242 18 49 113 16 290 107 40 28 6 355 4 6 38 32 13 19 115 132 134 131 117 185 164 168 235 159
34 43 60 53 38 33 15 2 19 29 44 27 25 34 41 17 8 33 21 37 50 37 21 58 36 38 35 27 37 51 32 38 43 32 39 31 27 26 6 356 186 140 270 261
51 45 46 40 31 20 9 8 13 358 32 33 10 349 350 13 46 40 35 28 30 36 28 21 23 29 24 37 44 33 28 34 43 49 44 39 44 38 28 31 40 41 50 49